Regional Weather Roundup
Issued by NWS Austin/San Antonio, TX

Current Version | Previous Version | Text Only | Print | Product List | Glossary On
Versions: 1 2 3 4 5 6 7 8 9 10 11 12 13 14 15 16 17 18 19 20 21 22 23 24 25 26 27 28 29 30 31 32 33 34 35 36 37 38 39 40 41 42 43 44 45 46 47 48 49 50
000
ASUS44 KEWX 180110
RWREWX
SOUTH TEXAS REGIONAL WEATHER ROUNDUP
NATIONAL WEATHER SERVICE AUSTIN/SAN ANTONIO TX
800 PM CDT THU JUN 17 2021

NOTE: "FAIR" INDICATED FEW OR NO CLOUDS BELOW 12,000 FEET WITH NO
SIGNIFICANT WEATHER AND/OR OBSTRUCTIONS TO VISIBILITY.

* - THESE STATIONS ARE NOT NWS OR FAA STATIONS...AND ARE NOT SUBJECT
    TO NWS AND FAA QUALITY CONTROL.

TXZ171-172-183>190-180200-
TEXAS HILL COUNTRY AND EDWARDS PLATEAU

CITY           SKY/WX    TMP DP  RH WIND       PRES   REMARKS
JUNCTION       PTCLDY    92  59  33 SE10      29.98S HX  91
*LLANO         CLEAR     90  63  40 SE3       29.95S HX  90
BURNET         CLEAR     90  62  39 E3        29.99S HX  90
*HORSESHOE BAY CLEAR     91  60  35 SE3       29.97S HX  90
*LAGO VISTA    CLEAR     94  61  33 CALM      29.98S HX  93
*KERRVILLE     PTCLDY    85  65  51 SE5       30.00S
*FREDERICKSBRG MOCLDY    85  62  47 CALM      30.01R
*ROCKSPRINGS     N/A     84  63  48 MISG      30.07R
*BOERNE        CLEAR     86  61  42 SE6       29.98S
*CASTROVILLE   CLEAR     92  61  35 SE6       29.96S HX  92
HONDO          CLEAR     89  65  44 SE7       29.95S HX  91
*UVALDE        CLEAR     89  64  43 E6        29.97R HX  90
DEL RIO        PTCLDY    97  63  32 SE13      29.91S HX  98
*LAUGHLIN AFB  CLEAR     94  60  32 SE14      29.92S HX  93
*SPOFFORD      PTCLDY    93  61  34 SE13      29.87S HX  93
*EAGLE PASS    CLEAR     93  57  29 E8G15     29.92R HX  92
CARRIZO SPRGS  PTCLDY    91  59  33 E7        29.91R HX  90
$$

TXZ173-191>194-202-209-217>225-228-180200-
CENTRAL AND SOUTH CENTRAL TEXAS

CITY           SKY/WX    TMP DP  RH WIND       PRES   REMARKS
GEORGETOWN     CLEAR     92  64  39 SE5       29.97R HX  93
*TAYLOR        CLEAR     91  68  46 SE5       29.94R HX  94
AUSTIN/BERGSTM PTCLDY    91  66  43 SE7       29.93R HX  93
AUSTIN/MABRY   PTCLDY    91  62  37 SE6       29.95R HX  91
*PFLUGERVILLE  CLEAR     90  66  45 CALM      29.94R HX  92
SAN MARCOS     CLEAR     88  71  57 SE6       29.95R HX  94
NEW BRAUNFELS  CLEAR     91  68  46 S6        29.93S HX  95
*RANDOLPH AFB  CLEAR     87  70  56 SE3       29.93S HX  92
*SEGUIN        CLEAR     90  68  49 SE5       29.97S HX  93
SAN ANTONIO    PTCLDY    88  66  48 SE12      29.95S HX  90
STINSON FIELD  CLEAR     92  71  50 SE7       29.92R HX  98
*KELLY FIELD   CLEAR     90  67  47 E8        29.93R HX  93
*PLEASANTON    CLEAR     91  68  48 E3        29.93S HX  94
*KENEDY        CLEAR     86  72  63 SE7       29.94R HX  91
*LA GRANGE     MOCLDY    82  72  71 CALM      29.93R
*GIDDINGS      PTCLDY    84  73  67 E3        29.95R HX  90
*GONZALES      CLOUDY    91  71  52 CALM      29.92S HX  97
$$

TXZ163>164-176>182-195>201-210>213-226-227-235-180200-
SOUTHEAST TEXAS

CITY           SKY/WX    TMP DP  RH WIND       PRES   REMARKS
COLLEGE STN    PTCLDY    88  73  61 SE5       29.94R HX  95
*BRYAN         PTCLDY    87  73  64 E3        29.95R HX  94
*CALDWELL      CLOUDY    83  75  78 CALM      29.95R HX  90
*CROCKETT      PTCLDY    84  72  65 CALM      29.95S
*BRENHAM       PTCLDY    87  75  68 CALM      29.95R HX  96
HUNTSVILLE     CLEAR     88  71  57 E3        29.95R HX  94
CONROE         CLEAR     85  74  69 CALM      29.95R HX  92
HOUSTON BUSH   PTCLDY    87  67  51 NE10      29.93R HX  90
HOUSTON HOBBY  PTCLDY    87  66  49 SE12      29.92R
*HOUSTON SW AP PTCLDY    86  70  59 SE5       29.93S HX  90
PEARLAND       CLEAR     88  66  48 SE9       29.94R HX  90
HOUSTON HOOKS  CLEAR     88  70  55 E8        29.93R HX  93
ELLINGTON FLD  PTCLDY    84  70  61 SE8       29.93R
SUGAR LAND     PTCLDY    90  69  50 E7        29.92R HX  94
*HOUSTON EXEC  NOT AVBL
*CLEVELAND MUN CLEAR     82  73  75 CALM      29.95R
*WHARTON         N/A     85  67  55 E6        29.93R
*COLUMBUS      FAIR      88  73  60 E6        29.93R HX  96
*EAGLE LAKE    NOT AVBL
$$

TXZ214>216-236>238-180200-
THE UPPER TEXAS COAST

CITY           SKY/WX    TMP DP  RH WIND       PRES   REMARKS
*ORANGE        CLEAR     85  63  47 CALM      29.96R
PORT ARTHUR    CLEAR     83  65  54 E10       29.93R
GALVESTON      CLEAR     86  64  47 E15       29.93S
ANGLETON       CLEAR     84  65  52 SE5       29.93R
*BAY CITY      MOCLDY    85  70  61 SE9       29.93R
PALACIOS       MOCLDY    85  71  63 E14       29.91S HX  90
$$

TXZ229>234-239>247-180200-
TEXAS COASTAL BEND AND RIO GRANDE PLAINS

CITY           SKY/WX    TMP DP  RH WIND       PRES   REMARKS
VICTORIA       MOCLDY    86  73  65 S8        29.92S HX  93
*BEEVILLE      MOCLDY    79  79  99 SE3       29.93S
ROCKPORT       PTCLDY    87  74  64 E10       29.91S HX  95
*PORT ARANSAS  MOCLDY    86  77  74 E9        29.93S HX  96
*PORT LAVACA   MOCLDY    86  73  66 SE9G16    29.92S HX  93
*INGLESIDE     PTCLDY    88  76  67 SE10      29.91S HX  98
CORPUS CHRISTI MOCLDY    87  71  58 E7        29.92S HX  93
CORPUS NAS     MOCLDY    87  74  64 E8        29.91S HX  95
*ROBSTOWN      PTCLDY    90  70  52 E7        29.92S HX  95
ALICE          PTCLDY    85  69  58 SE6       29.92S
KINGSVILLE NAS MOCLDY    84  73  69 E5        29.92R HX  90
COTULLA        PTCLDY    93  63  36 E10       29.93R HX  94
LAREDO         PTCLDY    92  67  43 SE16G22   29.92R HX  95
$$

TXZ248>255-180200-
DEEP SOUTH TEXAS

CITY           SKY/WX    TMP DP  RH WIND       PRES   REMARKS
BROWNSVILLE    PTCLDY    85  71  63 NE7       29.90S HX  90
PORT ISABEL    PTCLDY    85  71  63 NE8       29.90S HX  90
HARLINGEN      MOCLDY    84  76  76 E6        29.90S HX  93
*HEBBRONVILLE  MOCLDY    84  61  46 SE6       29.96S
MCALLEN        MOCLDY    87  69  54 E8        29.91S HX  91
*WESLACO       MOCLDY    86  71  62 E6        29.90S HX  91
FALFURRIAS     PTCLDY    82  70  68 E3        29.92S
EDINBURG       PTCLDY    85  72  63 E3        29.91S HX  91
*ZAPATA        PTCLDY    92  67  44 E10G16    29.93R HX  95
$$

TXZ213>215-236>238-242>244-246-247-251-254-255-180200-
CMAN STATIONS

STATION/POSITION TIME  TEMP    WIND        PRES    WAVE
                       AIR SEA DIR/SP/G            HT/PER
                 (UTC) (F)     (DEG/KT/KT) (MB)    (FT/S)
NORTH JETTY/GLS  0024   85 87  110/ 14/ 16 1012.4
EAGLE POINT      0024   85 89  120/ 12/ 15 1013.2
MORGANS POINT    0024   85 86  130/ 12/ 15 1013.5
MISSION/ARANSAS  0000   87      80/ 11     1014.0
PORT O`CONNOR    0030   85 91  100/ 17/ 19 1012.5
PORT ARANSAS     0100   86 87   70/ 15/ 17   N/A
MALAQUITE BEACH  0030   92      50/  7/  9   N/A
BAFFIN BAY       0030   84 91   50/  7/  9 1012.4
PORT ISABEL      0030   84 85   10/  7/ 10 1013.5
$$



USA.gov is the U.S. government's official web portal to all federal, state and local government web resources and services.